TimeICT,TemperatureF,Dew PointF,Humidity,Sea Level PressureIn,VisibilityMPH,Wind Direction,Wind SpeedMPH,Gust SpeedMPH,PrecipitationIn,Events,Conditions,WindDirDegrees,DateUTC
12:00 AM,69.8,62.6,78,29.95,0.9,North,2.3,-,N/A,,Mist,10,2014-01-27 17:00:00
12:30 AM,68.0,62.6,83,29.92,0.9,NNW,3.5,-,N/A,,Mist,330,2014-01-27 17:30:00
1:00 AM,69,66,86,29.96,4,Calm,Calm,,,,Mist,,2014-01-27 18:00:00
1:00 AM,69.8,62.6,78,29.92,0.9,North,2.3,-,N/A,,Mist,10,2014-01-27 18:00:00
1:30 AM,68.0,62.6,83,29.92,0.9,NNW,2.3,-,N/A,,Mist,330,2014-01-27 18:30:00
2:00 AM,66.2,62.6,88,29.89,0.9,Calm,Calm,-,N/A,,Mist,0,2014-01-27 19:00:00
2:30 AM,66.2,60.8,83,29.89,0.9,Calm,Calm,-,N/A,,Mist,0,2014-01-27 19:30:00
3:00 AM,66.2,60.8,83,29.89,0.9,Calm,Calm,-,N/A,,Mist,0,2014-01-27 20:00:00
3:30 AM,66.2,60.8,83,29.89,0.9,Calm,Calm,-,N/A,,Mist,0,2014-01-27 20:30:00
4:00 AM,67,64,88,29.88,4,Calm,Calm,,,,Mist,,2014-01-27 21:00:00
4:00 AM,66.2,60.8,83,29.89,0.9,Calm,Calm,-,N/A,,Mist,0,2014-01-27 21:00:00
4:30 AM,64.4,60.8,88,29.89,0.9,Calm,Calm,-,N/A,,Mist,0,2014-01-27 21:30:00
5:00 AM,64.4,60.8,88,29.89,0.9,NW,3.5,-,N/A,,Mist,310,2014-01-27 22:00:00
5:30 AM,64.4,60.8,88,29.89,0.9,NNW,3.5,-,N/A,,Mist,340,2014-01-27 22:30:00
6:00 AM,64.4,60.8,88,29.92,0.9,NNW,3.5,-,N/A,,Mist,340,2014-01-27 23:00:00
6:30 AM,64.4,60.8,88,29.92,0.6,NW,2.3,-,N/A,,Mist,320,2014-01-27 23:30:00
7:00 AM,66,64,90,29.92,2,NNW,2.3,,,,Mist,340,2014-01-28 00:00:00
7:00 AM,64.4,60.8,88,29.92,0.6,NNW,3.5,-,N/A,,Mist,340,2014-01-28 00:00:00
8:00 AM,68.0,62.6,83,29.95,0.6,NNW,3.5,-,N/A,,Mist,340,2014-01-28 01:00:00
8:30 AM,68.0,62.6,83,29.95,0.6,North,3.5,-,N/A,,Mist,350,2014-01-28 01:30:00
9:00 AM,77.0,64.4,65,29.98,0.6,North,3.5,-,N/A,,Mist,350,2014-01-28 02:00:00
9:30 AM,80.6,68.0,65,29.98,0.6,Calm,Calm,-,N/A,,Mist,0,2014-01-28 02:30:00
10:00 AM,79,71,69,29.98,4,Calm,Calm,,,,Mist,,2014-01-28 03:00:00
10:00 AM,82.4,68.0,62,29.98,1.2,Calm,Calm,-,N/A,,Haze,0,2014-01-28 03:00:00
10:30 AM,82.4,66.2,58,29.98,1.2,South,6.9,-,N/A,,Haze,180,2014-01-28 03:30:00
11:00 AM,84.2,68.0,58,29.95,1.2,SW,6.9,-,N/A,,Haze,220,2014-01-28 04:00:00
11:30 AM,84.2,68.0,58,29.95,1.2,SSW,5.8,-,N/A,,Haze,200,2014-01-28 04:30:00
12:00 PM,84.2,68.0,58,29.95,1.2,SSE,3.5,-,N/A,,Haze,160,2014-01-28 05:00:00
12:30 PM,87.8,66.2,49,29.92,1.9,SSW,8.1,-,N/A,,Haze,210,2014-01-28 05:30:00
1:00 PM,82,73,68,29.92,4,South,2.3,,,,Mist,170,2014-01-28 06:00:00
1:00 PM,86.0,64.4,48,29.92,1.9,South,6.9,-,N/A,,Haze,180,2014-01-28 06:00:00
1:30 PM,86.0,66.2,51,29.89,1.9,SW,8.1,-,N/A,,Haze,220,2014-01-28 06:30:00
2:00 PM,86.0,66.2,51,29.89,1.9,SSW,4.6,-,N/A,,Haze,210,2014-01-28 07:00:00
2:30 PM,86.0,64.4,48,29.86,2.5,SSW,9.2,-,N/A,,Haze,210,2014-01-28 07:30:00
3:00 PM,84.2,66.2,55,29.86,2.5,South,11.5,-,N/A,,Haze,190,2014-01-28 08:00:00
4:00 PM,83,73,64,29.85,4,South,4.6,,,,Mist,180,2014-01-28 09:00:00
4:00 PM,84.2,68.0,58,29.86,2.5,South,6.9,-,N/A,,Haze,170,2014-01-28 09:00:00
4:30 PM,84.2,66.2,55,29.86,2.5,South,9.2,-,N/A,,Haze,190,2014-01-28 09:30:00
5:00 PM,84.2,66.2,55,29.86,2.5,SSW,9.2,-,N/A,,Haze,210,2014-01-28 10:00:00
5:30 PM,82.4,69.8,66,29.86,2.5,WSW,4.6,-,N/A,,Haze,250,2014-01-28 10:30:00
6:00 PM,73.4,69.8,88,29.86,2.5,SW,4.6,-,N/A,,Haze,230,2014-01-28 11:00:00
6:30 PM,78.8,69.8,74,29.86,1.9,West,4.6,-,N/A,,Scattered Clouds,270,2014-01-28 11:30:00
7:00 PM,79,72,74,29.89,4,Calm,Calm,,,,Mist,,2014-01-28 12:00:00
7:00 PM,78.8,68.0,69,29.89,1.9,WSW,2.3,-,N/A,,Mist,240,2014-01-28 12:00:00
7:30 PM,77.0,68.0,74,29.89,1.9,WSW,2.3,-,N/A,,Mist,240,2014-01-28 12:30:00
8:00 PM,75.2,68.0,78,29.92,1.9,West,2.3,-,N/A,,Mist,280,2014-01-28 13:00:00
8:30 PM,75.2,68.0,78,29.92,1.9,North,2.3,-,N/A,,Mist,10,2014-01-28 13:30:00
9:00 PM,75.2,68.0,78,29.95,1.2,North,2.3,-,N/A,,Mist,10,2014-01-28 14:00:00
9:30 PM,73.4,68.0,83,29.95,1.2,North,2.3,-,N/A,,Mist,10,2014-01-28 14:30:00
10:00 PM,74,71,88,29.96,4,Calm,Calm,,,,Mist,,2014-01-28 15:00:00
10:00 PM,73.4,68.0,83,29.95,1.2,North,3.5,-,N/A,,Mist,10,2014-01-28 15:00:00
10:30 PM,71.6,68.0,88,29.95,1.2,North,3.5,-,N/A,,Mist,350,2014-01-28 15:30:00
11:00 PM,71.6,68.0,88,29.95,1.2,North,3.5,-,N/A,,Mist,350,2014-01-28 16:00:00
11:30 PM,71.6,68.0,88,29.95,1.2,North,3.5,-,N/A,,Mist,360,2014-01-28 16:30:00